^^
Saratoga-Weather Station Historical Data
Daily Summary for May 20, 2020 Units:  Metric    English   Both
Daily Weekly Monthly Yearly Custom
  High: Low: Average:
Temperature: 9.1 °C 5.3 °C 7.2 °C
Dew Point: 6.5 °C 3.2 °C 5.1 °C
Humidity: 95% 74% 87%
Wind Speed: 40.4km/h 0km/h 4.9km/h
Wind Gust: 43.5km/h - -
Wind- - SW
Pressure: 1023.4 hPa 1014.9 hPa -
Precipitation: 5.1 mm    
Historical Graphs
 
 
Tabular Data for May 20, 2020
Time Temperature Dew Point Pressure Wind Wind Speed Wind Gust Humidity Rainfall Rate (Hourly) solar
00:03 5.4 °C 3.9 °C 1023.4 hPa NW 1.4 km/h 11.3 km/h 90% 0.5 mm 0 W/m2
00:08 5.4 °C 4 °C 1023.4 hPa WSW 3.2 km/h 4.8 km/h 91% 0.8 mm 0 W/m2
00:14 5.3 °C 4 °C 1023.4 hPa Calm   11.3 km/h 91% 0.5 mm 0 W/m2
00:19 5.3 °C 4 °C 1023.0 hPa Calm   6.4 km/h 91% 0.5 mm 0 W/m2
00:24 5.3 °C 4 °C 1023.0 hPa Calm   9.7 km/h 91% 0.5 mm 0 W/m2
00:29 5.3 °C 4.1 °C 1023.0 hPa NW 3.2 km/h 6.4 km/h 92% 0.8 mm 0 W/m2
00:34 5.3 °C 4.1 °C 1023.0 hPa Calm   8 km/h 92% 0.8 mm 0 W/m2
00:39 5.3 °C 4.1 °C 1023.0 hPa NW 1.4 km/h 8 km/h 92% 0.5 mm 0 W/m2
00:44 5.3 °C 4.1 °C 1023.0 hPa West 1.4 km/h 3.2 km/h 92% 0.8 mm 0 W/m2
00:49 5.3 °C 4.1 °C 1023.0 hPa Calm   8 km/h 92% 0.8 mm 0 W/m2
00:54 5.3 °C 4.1 °C 1023.0 hPa NW 1.4 km/h 3.2 km/h 92% 0.8 mm 0 W/m2
00:59 5.3 °C 4.3 °C 1023.0 hPa SSE 7.9 km/h 11.3 km/h 93% 0.5 mm 0 W/m2
01:04 5.3 °C 4.3 °C 1023.0 hPa West 1.4 km/h 4.8 km/h 93% 0.5 mm 0 W/m2
01:09 5.3 °C 4.3 °C 1022.7 hPa SE 4.7 km/h 11.3 km/h 93% 0.5 mm 0 W/m2
01:14 5.3 °C 4.3 °C 1023.0 hPa SW 1.4 km/h 4.8 km/h 93% 0.5 mm 0 W/m2
01:20 5.3 °C 4.3 °C 1022.7 hPa SW 1.4 km/h 9.7 km/h 93% 0.5 mm 0 W/m2
01:25 5.3 °C 4.3 °C 1022.7 hPa West 6.4 km/h 9.7 km/h 93% 0.5 mm 0 W/m2
01:30 5.3 °C 4.3 °C 1022.7 hPa West 3.2 km/h 6.4 km/h 93% 0.5 mm 0 W/m2
01:35 5.3 °C 4.3 °C 1022.7 hPa West 3.2 km/h 9.7 km/h 93% 0.5 mm 0 W/m2
01:40 5.3 °C 4.3 °C 1022.4 hPa NW 1.4 km/h 4.8 km/h 93% 0.5 mm 0 W/m2
01:45 5.3 °C 4.3 °C 1022.4 hPa ENE 1.4 km/h 9.7 km/h 93% 0.5 mm 0 W/m2
01:50 5.3 °C 4.4 °C 1022.4 hPa NW 1.4 km/h 9.7 km/h 94% 0.5 mm 0 W/m2
01:55 5.3 °C 4.4 °C 1022.4 hPa West 3.2 km/h 12.9 km/h 94% 0.5 mm 0 W/m2
02:00 5.3 °C 4.4 °C 1022.0 hPa SSE 1.4 km/h 9.7 km/h 94% 0.5 mm 0 W/m2
02:05 5.3 °C 4.4 °C 1022.0 hPa West 4.7 km/h 6.4 km/h 94% 0.5 mm 0 W/m2
02:10 5.3 °C 4.4 °C 1022.0 hPa WNW 1.4 km/h 9.7 km/h 94% 0.5 mm 0 W/m2
02:16 5.4 °C 4.5 °C 1022.0 hPa West 3.2 km/h 3.2 km/h 94% 0.5 mm 0 W/m2
02:21 5.4 °C 4.5 °C 1022.0 hPa WNW 4.7 km/h 4.8 km/h 94% 0.5 mm 0 W/m2
02:26 5.4 °C 4.5 °C 1022.0 hPa NW 3.2 km/h 4.8 km/h 94% 0.2 mm 0 W/m2
02:31 5.4 °C 4.5 °C 1022.0 hPa NE 1.4 km/h 4.8 km/h 94% 0.2 mm 0 W/m2
02:36 5.4 °C 4.5 °C 1021.7 hPa NW 3.2 km/h 4.8 km/h 94% 0.2 mm 0 W/m2
02:41 5.5 °C 4.6 °C 1021.7 hPa WNW 3.2 km/h 3.2 km/h 94% 0.2 mm 0 W/m2
02:46 5.5 °C 4.6 °C 1021.7 hPa Calm   8 km/h 94% 0.0 mm 0 W/m2
02:51 5.5 °C 4.6 °C 1021.7 hPa North 1.4 km/h 4.8 km/h 94% 0.0 mm 0 W/m2
02:56 5.6 °C 4.7 °C 1021.7 hPa NW 1.4 km/h 8 km/h 94% 0.0 mm 0 W/m2
03:01 5.6 °C 4.7 °C 1021.7 hPa Calm   1.6 km/h 94% 0.0 mm 0 W/m2
03:06 5.6 °C 4.7 °C 1021.3 hPa NNE 1.4 km/h 6.4 km/h 94% 0.0 mm 0 W/m2
03:11 5.6 °C 4.7 °C 1021.3 hPa NNE 3.2 km/h 4.8 km/h 94% 0.0 mm 0 W/m2
03:16 5.6 °C 4.7 °C 1021.3 hPa Calm   4.8 km/h 94% 0.0 mm 0 W/m2
03:21 5.6 °C 4.7 °C 1021.3 hPa NNE 1.4 km/h 14.5 km/h 94% 0.0 mm 0 W/m2
03:26 5.7 °C 4.8 °C 1021.3 hPa ENE 4.7 km/h 8 km/h 94% 0.0 mm 0 W/m2
03:31 5.7 °C 4.8 °C 1021.3 hPa North 4.7 km/h 14.5 km/h 94% 0.0 mm 0 W/m2
03:36 5.7 °C 4.8 °C 1021.3 hPa Calm   4.8 km/h 94% 0.0 mm 0 W/m2
03:41 5.7 °C 4.8 °C 1021.3 hPa North 1.4 km/h 4.8 km/h 94% 0.0 mm 0 W/m2
03:46 5.7 °C 4.8 °C 1021.3 hPa North 3.2 km/h 3.2 km/h 94% 0.0 mm 0 W/m2
03:51 5.7 °C 4.8 °C 1021.3 hPa North 1.4 km/h 3.2 km/h 94% 0.0 mm 0 W/m2
03:56 5.8 °C 4.9 °C 1021.3 hPa NW 1.4 km/h 3.2 km/h 94% 0.0 mm 0 W/m2
04:01 5.8 °C 4.9 °C 1021.3 hPa Calm   3.2 km/h 94% 0.0 mm 0 W/m2
04:06 5.8 °C 4.9 °C 1021.3 hPa NNW 1.4 km/h 6.4 km/h 94% 0.0 mm 0 W/m2
04:11 5.8 °C 4.9 °C 1021.0 hPa WNW 1.4 km/h 9.7 km/h 94% 0.0 mm 0 W/m2
04:16 5.8 °C 4.9 °C 1021.0 hPa NW 6.4 km/h 8 km/h 94% 0.0 mm 0 W/m2
04:21 5.8 °C 4.9 °C 1021.0 hPa Calm   6.4 km/h 94% 0.0 mm 0 W/m2
04:26 5.9 °C 5 °C 1021.0 hPa WNW 6.4 km/h 8 km/h 94% 0.0 mm 0 W/m2
04:31 5.9 °C 5 °C 1021.0 hPa WNW 6.4 km/h 11.3 km/h 94% 0.0 mm 0 W/m2
04:36 5.9 °C 5 °C 1021.0 hPa North 3.2 km/h 4.8 km/h 94% 0.0 mm 0 W/m2
04:41 5.9 °C 5 °C 1020.7 hPa NNW 1.4 km/h 14.5 km/h 94% 0.0 mm 0 W/m2
04:46 5.9 °C 5 °C 1020.7 hPa NE 3.2 km/h 4.8 km/h 94% 0.0 mm 0 W/m2
04:51 5.9 °C 5 °C 1020.7 hPa WSW 13 km/h 14.5 km/h 94% 0.0 mm 0 W/m2
04:56 5.9 °C 5 °C 1020.7 hPa East 1.4 km/h 6.4 km/h 94% 0.0 mm 0 W/m2
05:01 5.9 °C 5.2 °C 1020.7 hPa NW 3.2 km/h 14.5 km/h 95% 0.0 mm 0 W/m2
05:06 5.9 °C 5.2 °C 1020.7 hPa Calm   6.4 km/h 95% 0.0 mm 0 W/m2
05:11 5.9 °C 5.2 °C 1020.7 hPa North 1.4 km/h 9.7 km/h 95% 0.0 mm 0 W/m2
05:16 5.9 °C 5.2 °C 1020.7 hPa NE 3.2 km/h 3.2 km/h 95% 0.0 mm 0 W/m2
05:21 6 °C 5.3 °C 1020.7 hPa WNW 3.2 km/h 6.4 km/h 95% 0.0 mm 0 W/m2
05:26 6 °C 5.3 °C 1020.7 hPa NE 3.2 km/h 3.2 km/h 95% 0.0 mm 0 W/m2
05:31 6 °C 5.3 °C 1020.7 hPa NE 1.4 km/h 3.2 km/h 95% 0.0 mm 0 W/m2
05:36 6.1 °C 5.4 °C 1020.7 hPa ENE 1.4 km/h 4.8 km/h 95% 0.0 mm 0 W/m2
05:41 6.1 °C 5.4 °C 1020.7 hPa NNW 3.2 km/h 8 km/h 95% 0.0 mm 0 W/m2
05:46 6.1 °C 5.4 °C 1020.7 hPa Calm   4.8 km/h 95% 0.0 mm 0 W/m2
05:51 6.1 °C 5.4 °C 1020.7 hPa Calm   8 km/h 95% 0.0 mm 0 W/m2
05:56 6.2 °C 5.5 °C 1020.7 hPa NNW 3.2 km/h 3.2 km/h 95% 0.0 mm 0 W/m2
06:01 6.2 °C 5.5 °C 1020.7 hPa West 1.4 km/h 6.4 km/h 95% 0.0 mm 0 W/m2
06:06 6.3 °C 5.6 °C 1020.7 hPa West 1.4 km/h 8 km/h 95% 0.0 mm 0 W/m2
06:11 6.3 °C 5.6 °C 1020.3 hPa ENE 1.4 km/h 3.2 km/h 95% 0.0 mm 0 W/m2
06:16 6.3 °C 5.6 °C 1020.3 hPa ENE 3.2 km/h 4.8 km/h 95% 0.0 mm 0 W/m2
06:21 6.4 °C 5.7 °C 1020.3 hPa NNW 3.2 km/h 4.8 km/h 95% 0.0 mm 0 W/m2
06:26 6.4 °C 5.7 °C 1020.3 hPa NNW 1.4 km/h 1.6 km/h 95% 0.0 mm 0 W/m2
06:31 6.4 °C 5.7 °C 1020.3 hPa NNE 3.2 km/h 3.2 km/h 95% 0.0 mm 0 W/m2
06:36 6.4 °C 5.7 °C 1020.3 hPa NNW 1.4 km/h 3.2 km/h 95% 0.0 mm 0 W/m2
06:41 6.5 °C 5.8 °C 1020.0 hPa Calm   3.2 km/h 95% 0.0 mm 0 W/m2
06:46 6.6 °C 5.7 °C 1020.0 hPa North 3.2 km/h 4.8 km/h 94% 0.0 mm 0 W/m2
06:51 6.6 °C 5.7 °C 1020.0 hPa Calm   3.2 km/h 94% 0.0 mm 0 W/m2
06:56 6.6 °C 5.7 °C 1020.0 hPa East 3.2 km/h 3.2 km/h 94% 0.0 mm 0 W/m2
07:01 6.6 °C 5.7 °C 1020.0 hPa NNE 3.2 km/h 6.4 km/h 94% 0.0 mm 0 W/m2
07:06 6.6 °C 5.7 °C 1020.3 hPa Calm   3.2 km/h 94% 0.0 mm 0 W/m2
07:11 6.6 °C 5.7 °C 1020.0 hPa North 1.4 km/h 4.8 km/h 94% 0.0 mm 0 W/m2
07:16 6.6 °C 5.7 °C 1020.0 hPa NNW 1.4 km/h 6.4 km/h 94% 0.0 mm 0 W/m2
07:21 6.7 °C 5.8 °C 1020.0 hPa NW 4.7 km/h 11.3 km/h 94% 0.0 mm 0 W/m2
07:26 6.7 °C 5.8 °C 1020.0 hPa NE 1.4 km/h 6.4 km/h 94% 0.0 mm 0 W/m2
07:31 6.7 °C 5.8 °C 1020.0 hPa NNW 1.4 km/h 4.8 km/h 94% 0.0 mm 0 W/m2
07:36 6.7 °C 5.8 °C 1020.3 hPa ENE 3.2 km/h 6.4 km/h 94% 0.0 mm 0 W/m2
07:41 6.7 °C 5.8 °C 1020.0 hPa WNW 1.4 km/h 14.5 km/h 94% 0.0 mm 0 W/m2
07:46 6.8 °C 5.9 °C 1020.3 hPa Calm   4.8 km/h 94% 0.0 mm 0 W/m2
07:51 6.8 °C 5.9 °C 1020.3 hPa WNW 1.4 km/h 8 km/h 94% 0.0 mm 9 W/m2
07:56 6.8 °C 5.9 °C 1020.3 hPa NNW 1.4 km/h 4.8 km/h 94% 0.0 mm 12 W/m2
08:01 6.8 °C 5.9 °C 1020.3 hPa East 4.7 km/h 4.8 km/h 94% 0.0 mm 18 W/m2
08:06 6.8 °C 5.9 °C 1020.3 hPa Calm   4.8 km/h 94% 0.0 mm 14 W/m2
08:11 6.8 °C 5.9 °C 1020.3 hPa Calm   1.6 km/h 94% 0.0 mm 11 W/m2
08:16 6.8 °C 5.9 °C 1020.7 hPa SW 1.4 km/h 6.4 km/h 94% 0.0 mm 11 W/m2
08:21 6.9 °C 6 °C 1020.7 hPa WNW 4.7 km/h 4.8 km/h 94% 0.0 mm 11 W/m2
08:26 6.9 °C 5.8 °C 1020.3 hPa Calm   1.6 km/h 93% 0.0 mm 12 W/m2
08:31 6.9 °C 5.8 °C 1020.7 hPa NNW 1.4 km/h 6.4 km/h 93% 0.0 mm 14 W/m2
08:36 6.9 °C 5.8 °C 1020.7 hPa Calm   4.8 km/h 93% 0.0 mm 18 W/m2
08:41 7 °C 5.9 °C 1020.7 hPa ENE 3.2 km/h 6.4 km/h 93% 0.0 mm 30 W/m2
08:46 7 °C 5.9 °C 1020.7 hPa NE 1.4 km/h 6.4 km/h 93% 0.0 mm 21 W/m2
08:51 7 °C 5.9 °C 1020.7 hPa NNW 4.7 km/h 4.8 km/h 93% 0.0 mm 21 W/m2
08:56 7.1 °C 6 °C 1020.7 hPa NNE 4.7 km/h 4.8 km/h 93% 0.0 mm 30 W/m2
09:01 7.1 °C 6 °C 1020.7 hPa Calm   4.8 km/h 93% 0.0 mm 30 W/m2
09:06 7.1 °C 6 °C 1020.7 hPa NE 7.9 km/h 8 km/h 93% 0.0 mm 18 W/m2
09:11 7.1 °C 6 °C 1020.7 hPa SSW 3.2 km/h 4.8 km/h 93% 0.0 mm 28 W/m2
09:16 7.1 °C 6 °C 1020.7 hPa West 4.7 km/h 11.3 km/h 93% 0.0 mm 44 W/m2
09:21 7.1 °C 6 °C 1020.7 hPa Calm   4.8 km/h 93% 0.0 mm 63 W/m2
09:26 7.1 °C 6 °C 1020.7 hPa NNW 1.4 km/h 9.7 km/h 93% 0.0 mm 62 W/m2
09:31 7.2 °C 6.1 °C 1020.7 hPa Calm   3.2 km/h 93% 0.0 mm 70 W/m2
09:36 7.2 °C 6.1 °C 1020.7 hPa WSW 3.2 km/h 6.4 km/h 93% 0.0 mm 79 W/m2
09:41 7.2 °C 6.1 °C 1020.7 hPa NNW 4.7 km/h 4.8 km/h 93% 0.0 mm 70 W/m2
09:46 7.3 °C 6.2 °C 1020.3 hPa WSW 1.4 km/h 6.4 km/h 93% 0.0 mm 95 W/m2
09:51 7.3 °C 6.2 °C 1020.3 hPa Calm     93% 0.0 mm 53 W/m2
09:56 7.3 °C 6.2 °C 1020.3 hPa Calm   1.6 km/h 93% 0.0 mm 63 W/m2
10:01 7.4 °C 6.3 °C 1020.3 hPa ENE 1.4 km/h 3.2 km/h 93% 0.0 mm 107 W/m2
10:06 7.4 °C 6.3 °C 1020.3 hPa NNE 1.4 km/h 4.8 km/h 93% 0.0 mm 121 W/m2
10:11 7.5 °C 6.4 °C 1020.3 hPa Calm   11.3 km/h 93% 0.0 mm 148 W/m2
10:16 7.6 °C 6.4 °C 1020.3 hPa Calm   3.2 km/h 92% 0.0 mm 107 W/m2
10:21 7.6 °C 6.4 °C 1020.0 hPa NW 3.2 km/h 4.8 km/h 92% 0.0 mm 98 W/m2
10:26 7.7 °C 6.5 °C 1020.0 hPa NE 3.2 km/h 6.4 km/h 92% 0.0 mm 77 W/m2
10:31 7.7 °C 6.5 °C 1020.0 hPa NW 3.2 km/h 9.7 km/h 92% 0.0 mm 144 W/m2
10:36 7.7 °C 6.5 °C 1020.0 hPa West 3.2 km/h 4.8 km/h 92% 0.0 mm 132 W/m2
10:41 7.7 °C 6.5 °C 1020.0 hPa North 1.4 km/h 1.6 km/h 92% 0.0 mm 165 W/m2
10:46 7.7 °C 6.5 °C 1020.0 hPa WSW 4.7 km/h 4.8 km/h 92% 0.0 mm 135 W/m2
10:51 7.8 °C 6.4 °C 1020.0 hPa ENE 3.2 km/h 8 km/h 91% 0.2 mm 148 W/m2
10:56 7.8 °C 6.4 °C 1020.0 hPa Calm   4.8 km/h 91% 0.2 mm 123 W/m2
11:01 7.8 °C 6.4 °C 1020.0 hPa WSW 7.9 km/h 14.5 km/h 91% 0.2 mm 135 W/m2
11:06 7.8 °C 6.4 °C 1020.0 hPa ENE 11.1 km/h 11.3 km/h 91% 0.2 mm 121 W/m2
11:11 7.8 °C 6.3 °C 1020.0 hPa WNW 7.9 km/h 12.9 km/h 90% 0.2 mm 67 W/m2
11:16 7.8 °C 6.4 °C 1020.0 hPa SW 4.7 km/h 6.4 km/h 91% 0.2 mm 62 W/m2
11:21 7.7 °C 6.3 °C 1020.0 hPa NW 6.4 km/h 11.3 km/h 91% 0.2 mm 137 W/m2
11:26 7.7 °C 6.3 °C 1020.0 hPa NW 4.7 km/h 8 km/h 91% 0.2 mm 44 W/m2
11:31 7.7 °C 6.3 °C 1020.0 hPa NW 4.7 km/h 6.4 km/h 91% 0.2 mm 109 W/m2
11:36 7.6 °C 6.2 °C 1020.0 hPa WSW 6.4 km/h 11.3 km/h 91% 0.2 mm 76 W/m2
11:41 7.6 °C 6.2 °C 1020.0 hPa NW 1.4 km/h 6.4 km/h 91% 0.2 mm 46 W/m2
11:46 7.6 °C 6.2 °C 1019.6 hPa ENE 3.2 km/h 11.3 km/h 91% 0.2 mm 28 W/m2
11:51 7.6 °C 6.2 °C 1020.0 hPa WSW 1.4 km/h 3.2 km/h 91% 0.0 mm 74 W/m2
11:56 7.6 °C 6.1 °C 1019.6 hPa South 3.2 km/h 11.3 km/h 90% 0.0 mm 107 W/m2
12:02 7.7 °C 6.2 °C 1019.6 hPa West 3.2 km/h 3.2 km/h 90% 0.0 mm 97 W/m2
12:07 7.7 °C 6.2 °C 1019.6 hPa NW 3.2 km/h 4.8 km/h 90% 0.0 mm 90 W/m2
12:12 7.8 °C 6.3 °C 1019.6 hPa WNW 3.2 km/h 4.8 km/h 90% 0.0 mm 102 W/m2
12:17 7.8 °C 6.1 °C 1019.6 hPa North 3.2 km/h 4.8 km/h 89% 0.0 mm 83 W/m2
12:22 7.8 °C 5.9 °C 1019.6 hPa ESE 4.7 km/h 8 km/h 88% 0.0 mm 69 W/m2
12:27 7.9 °C 6 °C 1019.6 hPa WNW 6.4 km/h 9.7 km/h 88% 0.0 mm 83 W/m2
12:32 7.9 °C 5.9 °C 1019.3 hPa Calm   6.4 km/h 87% 0.0 mm 90 W/m2
12:37 7.9 °C 5.9 °C 1019.3 hPa WSW 11.1 km/h 16.1 km/h 87% 0.0 mm 76 W/m2
12:42 8 °C 6 °C 1019.3 hPa NW 1.4 km/h 6.4 km/h 87% 0.0 mm 76 W/m2
12:47 8 °C 5.8 °C 1019.3 hPa West 16.1 km/h 16.1 km/h 86% 0.0 mm 90 W/m2
12:52 8.1 °C 5.9 °C 1019.3 hPa East 6.4 km/h 9.7 km/h 86% 0.0 mm 83 W/m2
12:57 8.1 °C 5.7 °C 1019.3 hPa ESE 11.3 km/h 11.3 km/h 85% 0.0 mm 95 W/m2
13:02 8.2 °C 5.7 °C 1019.3 hPa SSE 3.2 km/h 6.4 km/h 84% 0.0 mm 130 W/m2
13:07 8.3 °C 5.8 °C 1019.0 hPa WNW 6.4 km/h 6.4 km/h 84% 0.0 mm 248 W/m2
13:12 8.4 °C 5.7 °C 1019.0 hPa SSW 3.2 km/h 9.7 km/h 83% 0.0 mm 199 W/m2
13:17 8.6 °C 5.7 °C 1019.0 hPa South 3.2 km/h 6.4 km/h 82% 0.0 mm 186 W/m2
13:22 8.7 °C 5.8 °C 1019.0 hPa WNW 4.7 km/h 6.4 km/h 82% 0.0 mm 90 W/m2
13:27 8.6 °C 5.3 °C 1018.6 hPa WNW 11.1 km/h 17.7 km/h 80% 0.0 mm 137 W/m2
13:32 8.6 °C 5.3 °C 1018.6 hPa WNW 11.1 km/h 16.1 km/h 80% 0.0 mm 100 W/m2
13:37 8.6 °C 5.3 °C 1018.6 hPa SSE 9.7 km/h 9.7 km/h 80% 0.0 mm 167 W/m2
13:42 8.6 °C 5.3 °C 1018.6 hPa NW 6.4 km/h 16.1 km/h 80% 0.0 mm 100 W/m2
13:47 8.6 °C 5.3 °C 1018.6 hPa NW 13 km/h 16.1 km/h 80% 0.0 mm 102 W/m2
13:52 8.6 °C 5.3 °C 1018.6 hPa SW 3.2 km/h 9.7 km/h 80% 0.0 mm 60 W/m2
13:57 8.6 °C 5.3 °C 1018.6 hPa West 6.4 km/h 16.1 km/h 80% 0.0 mm 67 W/m2
14:02 8.5 °C 5.2 °C 1018.3 hPa SSW 3.2 km/h 4.8 km/h 80% 0.0 mm 51 W/m2
14:07 8.4 °C 5.2 °C 1018.3 hPa WNW 3.2 km/h 11.3 km/h 80% 0.0 mm 63 W/m2
14:12 8.4 °C 5.2 °C 1018.3 hPa NW 4.7 km/h 4.8 km/h 80% 0.0 mm 58 W/m2
14:17 8.4 °C 5.3 °C 1018.3 hPa North 4.7 km/h 4.8 km/h 81% 0.0 mm 120 W/m2
14:22 8.5 °C 5.4 °C 1018.3 hPa ESE 9.7 km/h 11.3 km/h 81% 0.0 mm 135 W/m2
14:27 8.5 °C 5.4 °C 1018.3 hPa NW 3.2 km/h 12.9 km/h 81% 0.0 mm 120 W/m2
14:32 8.6 °C 5.5 °C 1018.0 hPa WNW 4.7 km/h 6.4 km/h 81% 0.0 mm 209 W/m2
14:37 8.7 °C 5.4 °C 1018.0 hPa West 3.2 km/h 11.3 km/h 80% 0.0 mm 179 W/m2
14:42 8.8 °C 5.5 °C 1018.0 hPa Calm   8 km/h 80% 0.0 mm 174 W/m2
14:47 8.8 °C 5.4 °C 1017.6 hPa NW 1.4 km/h 14.5 km/h 79% 0.0 mm 155 W/m2
14:52 8.9 °C 5.5 °C 1017.6 hPa West 1.4 km/h 6.4 km/h 79% 0.0 mm 97 W/m2
14:57 8.9 °C 5.5 °C 1017.6 hPa West 3.2 km/h 17.7 km/h 79% 0.0 mm 102 W/m2
15:02 8.8 °C 5.4 °C 1017.6 hPa NW 11.1 km/h 11.3 km/h 79% 0.0 mm 72 W/m2
15:07 8.8 °C 5.4 °C 1017.6 hPa WNW 6.4 km/h 20.9 km/h 79% 0.0 mm 54 W/m2
15:12 8.7 °C 5.3 °C 1017.6 hPa NNW 14.3 km/h 16.1 km/h 79% 0.0 mm 53 W/m2
15:17 8.7 °C 5.3 °C 1018.0 hPa NE 4.7 km/h 19.3 km/h 79% 0.0 mm 40 W/m2
15:22 8.7 °C 5.4 °C 1017.6 hPa Calm   12.9 km/h 80% 0.0 mm 141 W/m2
15:27 8.7 °C 5.4 °C 1017.6 hPa WSW 6.4 km/h 6.4 km/h 80% 0.0 mm 127 W/m2
15:32 8.7 °C 5.3 °C 1017.6 hPa West 6.4 km/h 9.7 km/h 79% 0.0 mm 121 W/m2
15:37 8.8 °C 5.4 °C 1017.3 hPa North 3.2 km/h 6.4 km/h 79% 0.0 mm 118 W/m2
15:42 8.9 °C 5.3 °C 1017.3 hPa NNE 1.4 km/h 14.5 km/h 78% 0.0 mm 100 W/m2
15:47 8.9 °C 5.1 °C 1017.3 hPa NNW 3.2 km/h 4.8 km/h 77% 0.0 mm 98 W/m2
15:52 9 °C 5.2 °C 1017.3 hPa NW 9.7 km/h 22.5 km/h 77% 0.0 mm 100 W/m2
15:57 9 °C 4.8 °C 1016.9 hPa West 6.4 km/h 11.3 km/h 75% 0.0 mm 105 W/m2
16:02 9.1 °C 4.9 °C 1016.9 hPa SSE 6.4 km/h 22.5 km/h 75% 0.0 mm 95 W/m2
16:07 9.1 °C 4.9 °C 1016.9 hPa West 13 km/h 12.9 km/h 75% 0.0 mm 76 W/m2
16:13 9.1 °C 4.9 °C 1016.9 hPa WNW 7.9 km/h 22.5 km/h 75% 0.0 mm 72 W/m2
16:18 9 °C 4.8 °C 1016.9 hPa NE 4.7 km/h 8 km/h 75% 0.0 mm 65 W/m2
16:23 9 °C 4.8 °C 1016.9 hPa NE 7.9 km/h 9.7 km/h 75% 0.0 mm 53 W/m2
16:28 9 °C 4.8 °C 1016.9 hPa Calm   6.4 km/h 75% 0.0 mm 56 W/m2
16:33 9 °C 4.8 °C 1016.9 hPa NW 4.7 km/h 4.8 km/h 75% 0.0 mm 51 W/m2
16:38 9 °C 4.8 °C 1016.9 hPa WNW 11.1 km/h 11.3 km/h 75% 0.0 mm 42 W/m2
16:43 8.9 °C 4.7 °C 1016.9 hPa NE 4.7 km/h 14.5 km/h 75% 0.0 mm 42 W/m2
16:48 9 °C 4.8 °C 1016.6 hPa NW 3.2 km/h 6.4 km/h 75% 0.0 mm 39 W/m2
16:53 8.9 °C 4.7 °C 1016.6 hPa WNW 7.9 km/h 11.3 km/h 75% 0.0 mm 33 W/m2
16:58 8.9 °C 4.7 °C 1016.6 hPa NNW 1.4 km/h 3.2 km/h 75% 0.0 mm 33 W/m2
17:03 8.9 °C 4.7 °C 1016.6 hPa WNW 11.1 km/h 11.3 km/h 75% 0.0 mm 26 W/m2
17:08 8.9 °C 4.7 °C 1016.3 hPa North 6.4 km/h 9.7 km/h 75% 0.0 mm 32 W/m2
17:13 8.9 °C 4.7 °C 1016.3 hPa WNW 3.2 km/h 4.8 km/h 75% 0.0 mm 32 W/m2
17:18 8.9 °C 4.7 °C 1015.9 hPa NE 6.4 km/h 6.4 km/h 75% 0.0 mm 28 W/m2
17:23 8.9 °C 4.7 °C 1016.3 hPa East 3.2 km/h 14.5 km/h 75% 0.0 mm 23 W/m2
17:28 8.9 °C 4.7 °C 1015.9 hPa ENE 4.7 km/h 6.4 km/h 75% 0.0 mm 16 W/m2
17:33 8.9 °C 4.7 °C 1016.3 hPa NW 1.4 km/h 14.5 km/h 75% 0.0 mm 12 W/m2
17:38 8.9 °C 4.7 °C 1016.3 hPa WSW 4.7 km/h 11.3 km/h 75% 0.0 mm 9 W/m2
17:44 8.8 °C 4.6 °C 1015.9 hPa North 6.4 km/h 12.9 km/h 75% 0.0 mm 7 W/m2
17:49 8.8 °C 4.6 °C 1016.3 hPa West 11.1 km/h 24.1 km/h 75% 0.0 mm 5 W/m2
17:54 8.8 °C 4.6 °C 1015.9 hPa NW 3.2 km/h 8 km/h 75% 0.0 mm 0 W/m2
17:59 8.8 °C 4.6 °C 1016.3 hPa NW 3.2 km/h 24.1 km/h 75% 0.0 mm 0 W/m2
18:04 8.8 °C 4.6 °C 1016.3 hPa NW 9.7 km/h 16.1 km/h 75% 0.0 mm 0 W/m2
18:09 8.8 °C 4.4 °C 1015.9 hPa NW 7.9 km/h 14.5 km/h 74% 0.0 mm 0 W/m2
18:14 8.8 °C 4.4 °C 1015.9 hPa West 1.4 km/h 14.5 km/h 74% 0.0 mm 0 W/m2
18:19 8.8 °C 4.4 °C 1016.3 hPa NW 6.4 km/h 11.3 km/h 74% 0.0 mm 0 W/m2
18:24 8.8 °C 4.4 °C 1015.9 hPa North 1.4 km/h 9.7 km/h 74% 0.0 mm 0 W/m2
18:29 8.8 °C 4.4 °C 1015.9 hPa NNW 3.2 km/h 8 km/h 74% 0.0 mm 0 W/m2
18:34 8.8 °C 4.6 °C 1015.9 hPa NNW 3.2 km/h 12.9 km/h 75% 0.0 mm 0 W/m2
18:39 8.7 °C 4.5 °C 1015.9 hPa East 14.3 km/h 14.5 km/h 75% 0.0 mm 0 W/m2
18:44 8.7 °C 4.5 °C 1015.9 hPa NW 4.7 km/h 4.8 km/h 75% 0.0 mm 0 W/m2
18:49 8.7 °C 4.5 °C 1015.9 hPa NNW 6.4 km/h 14.5 km/h 75% 0.0 mm 0 W/m2
18:54 8.8 °C 4.4 °C 1015.9 hPa WNW 3.2 km/h 12.9 km/h 74% 0.0 mm 0 W/m2
18:59 8.8 °C 4.4 °C 1015.9 hPa WNW 4.7 km/h 6.4 km/h 74% 0.0 mm 0 W/m2
19:04 8.8 °C 4.4 °C 1015.6 hPa NNE 4.7 km/h 8 km/h 74% 0.0 mm 0 W/m2
19:09 8.8 °C 4.4 °C 1015.6 hPa ENE 3.2 km/h 6.4 km/h 74% 0.0 mm 0 W/m2
19:14 8.8 °C 4.4 °C 1015.6 hPa WSW 6.4 km/h 12.9 km/h 74% 0.0 mm 0 W/m2
19:19 8.8 °C 4.4 °C 1015.6 hPa NNE 3.2 km/h 11.3 km/h 74% 0.0 mm 0 W/m2
19:24 8.8 °C 4.4 °C 1015.6 hPa WNW 4.7 km/h 11.3 km/h 74% 0.0 mm 0 W/m2
19:29 8.8 °C 4.6 °C 1015.2 hPa WNW 4.7 km/h 6.4 km/h 75% 0.0 mm 0 W/m2
19:34 8.8 °C 4.4 °C 1015.2 hPa NE 1.4 km/h 14.5 km/h 74% 0.0 mm 0 W/m2
19:39 8.8 °C 4.4 °C 1015.2 hPa NW 9.7 km/h 19.3 km/h 74% 0.0 mm 0 W/m2
19:44 8.9 °C 4.7 °C 1015.2 hPa WNW 7.9 km/h 24.1 km/h 75% 0.0 mm 0 W/m2
19:49 8.9 °C 4.5 °C 1015.2 hPa West 9.7 km/h 9.7 km/h 74% 0.0 mm 0 W/m2
19:54 8.9 °C 4.5 °C 1015.2 hPa WNW 7.9 km/h 19.3 km/h 74% 0.0 mm 0 W/m2
19:59 9 °C 4.6 °C 1015.2 hPa North 3.2 km/h 14.5 km/h 74% 0.0 mm 0 W/m2
20:04 8.9 °C 4.7 °C 1015.2 hPa WNW 9.7 km/h 14.5 km/h 75% 0.0 mm 0 W/m2
20:09 8.9 °C 4.7 °C 1014.9 hPa West 13 km/h 17.7 km/h 75% 0.0 mm 0 W/m2
20:14 8.9 °C 4.9 °C 1015.2 hPa North 4.7 km/h 4.8 km/h 76% 0.0 mm 0 W/m2
20:19 8.8 °C 5.2 °C 1015.2 hPa WSW 16.3 km/h 17.7 km/h 78% 0.2 mm 0 W/m2
20:24 8.7 °C 5.4 °C 1015.2 hPa SW 6.4 km/h 8 km/h 80% 0.5 mm 0 W/m2
20:29 8.4 °C 5.5 °C 1015.2 hPa East 6.4 km/h 16.1 km/h 82% 0.8 mm 0 W/m2
20:34 8.2 °C 5.5 °C 1015.2 hPa NW 4.7 km/h 14.5 km/h 83% 0.8 mm 0 W/m2
20:39 8.1 °C 5.6 °C 1015.2 hPa NW 4.7 km/h 9.7 km/h 84% 1.0 mm 0 W/m2
20:44 8.1 °C 5.7 °C 1015.2 hPa North 7.9 km/h 14.5 km/h 85% 1.3 mm 0 W/m2
20:49 8 °C 5.8 °C 1015.2 hPa North 4.7 km/h 11.3 km/h 86% 1.3 mm 0 W/m2
20:54 7.9 °C 5.9 °C 1015.2 hPa NE 1.4 km/h 27.4 km/h 87% 1.5 mm 0 W/m2
21:00 7.8 °C 5.8 °C 1015.2 hPa WNW 14.3 km/h 19.3 km/h 87% 1.5 mm 0 W/m2
21:05 7.8 °C 5.9 °C 1015.6 hPa SSW 6.4 km/h 27.4 km/h 88% 1.5 mm 0 W/m2
21:10 7.8 °C 6.1 °C 1015.6 hPa WSW 3.2 km/h 6.4 km/h 89% 1.8 mm 0 W/m2
21:15 7.8 °C 6.1 °C 1015.6 hPa South 1.4 km/h 14.5 km/h 89% 2.0 mm 0 W/m2
21:20 7.7 °C 6.2 °C 1015.9 hPa ESE 3.2 km/h 4.8 km/h 90% 2.0 mm 0 W/m2
21:25 7.7 °C 6.2 °C 1015.9 hPa North 3.2 km/h 12.9 km/h 90% 1.8 mm 0 W/m2
21:30 7.7 °C 6.3 °C 1016.3 hPa WNW 1.4 km/h 24.1 km/h 91% 1.8 mm 0 W/m2
21:35 7.7 °C 6.3 °C 1016.3 hPa NW 6.4 km/h 14.5 km/h 91% 2.3 mm 0 W/m2
21:40 7.7 °C 6.3 °C 1016.9 hPa West 40.4 km/h 43.5 km/h 91% 2.5 mm 0 W/m2
21:45 7.3 °C 5.8 °C 1017.3 hPa WNW 17.7 km/h 32.2 km/h 90% 2.8 mm 0 W/m2
21:50 6.8 °C 5 °C 1017.3 hPa West 14.3 km/h 43.5 km/h 88% 2.8 mm 0 W/m2
21:55 6.4 °C 4.7 °C 1017.6 hPa WSW 16.3 km/h 22.5 km/h 89% 2.5 mm 0 W/m2
22:00 6.2 °C 4.4 °C 1017.6 hPa WSW 28.8 km/h 33.8 km/h 88% 2.3 mm 0 W/m2
22:05 6 °C 4.2 °C 1018.0 hPa West 16.3 km/h 27.4 km/h 88% 2.3 mm 0 W/m2
22:10 5.9 °C 4.1 °C 1018.0 hPa West 9.7 km/h 20.9 km/h 88% 2.3 mm 0 W/m2
22:15 5.8 °C 4 °C 1018.0 hPa WSW 14.3 km/h 32.2 km/h 88% 2.0 mm 0 W/m2
22:20 5.8 °C 4 °C 1018.0 hPa West 14.3 km/h 19.3 km/h 88% 1.8 mm 0 W/m2
22:25 5.8 °C 3.8 °C 1018.0 hPa WNW 11.1 km/h 32.2 km/h 87% 1.5 mm 0 W/m2
22:30 5.7 °C 3.7 °C 1018.3 hPa WNW 13 km/h 27.4 km/h 87% 1.5 mm 0 W/m2
22:35 5.7 °C 3.7 °C 1018.6 hPa West 11.1 km/h 14.5 km/h 87% 1.0 mm 0 W/m2
22:40 5.6 °C 3.6 °C 1019.0 hPa West 4.7 km/h 16.1 km/h 87% 0.5 mm 0 W/m2
22:45 5.6 °C 3.8 °C 1019.0 hPa West 16.3 km/h 25.7 km/h 88% 0.0 mm 0 W/m2
22:50 5.6 °C 3.6 °C 1019.3 hPa West 6.4 km/h 20.9 km/h 87% 0.0 mm 0 W/m2
22:55 5.5 °C 3.5 °C 1019.3 hPa West 14.3 km/h 20.9 km/h 87% 0.0 mm 0 W/m2
23:00 5.5 °C 3.5 °C 1019.3 hPa West 11.1 km/h 25.7 km/h 87% 0.0 mm 0 W/m2
23:05 5.5 °C 3.5 °C 1019.6 hPa WNW 6.4 km/h 19.3 km/h 87% 0.0 mm 0 W/m2
23:10 5.4 °C 3.6 °C 1019.6 hPa WNW 22.7 km/h 22.5 km/h 88% 0.0 mm 0 W/m2
23:15 5.4 °C 3.6 °C 1019.6 hPa WSW 16.3 km/h 19.3 km/h 88% 0.0 mm 0 W/m2
23:20 5.4 °C 3.6 °C 1020.0 hPa West 9.7 km/h 20.9 km/h 88% 0.0 mm 0 W/m2
23:25 5.4 °C 3.6 °C 1020.0 hPa WNW 6.4 km/h 16.1 km/h 88% 0.0 mm 0 W/m2
23:30 5.4 °C 3.6 °C 1020.3 hPa SW 7.9 km/h 17.7 km/h 88% 0.0 mm 0 W/m2
23:35 5.4 °C 3.6 °C 1020.3 hPa WSW 6.4 km/h 20.9 km/h 88% 0.0 mm 0 W/m2
23:40 5.4 °C 3.4 °C 1020.7 hPa WNW 13 km/h 16.1 km/h 87% 0.0 mm 0 W/m2
23:45 5.4 °C 3.4 °C 1020.7 hPa WSW 9.7 km/h 20.9 km/h 87% 0.0 mm 0 W/m2
23:50 5.4 °C 3.4 °C 1020.7 hPa WNW 11.1 km/h 12.9 km/h 87% 0.0 mm 0 W/m2
23:55 5.4 °C 3.2 °C 1021.0 hPa NW 9.7 km/h 19.3 km/h 86% 0.0 mm 0 W/m2
Juneau County Weather
Compliments of Weather Underground - 4 mb